Flag for Germany Weather past 2 weeks in Peine, Lower Saxony, Germany

Now
61 °F

Light rain. Partly cloudy.


Feels Like: 61 °F
Forecast: 58 / 86 °F
Wind: 3 mph from Northeast

Location: Celle Airport

Current Time: Jul 25, 2014 at 3:35:45 AM

Latest Report: Jul 25, 2014 at 2:20 AM


Visibility: N/A

Pressure: 30.04 "Hg

Humidity: 94%

Dew point: 59 °F

Location of PeineLocation

Historic Weather in Peine — Graph

°F

Peine temperature yesterday

Maximum temperature yesterday: 77 °F (at 4:20 PM)
Minimum temperature yesterday: 61 °F (at 5:20 AM)
Average temperature yesterday: 67 °F

Past Weeks' High & Low Weather Summary

 TemperatureHumidityPressure
High91 °F (Jul 19, 4:20 PM)100% (Jul 10, 4:20 AM)30.18 "Hg (Jul 10, 4:20 AM)
Low52 °F (Jul 12, 4:20 AM)26% (Jul 19, 4:20 PM)29.71 "Hg (Jul 10, 3:20 AM)
Average70 °F67%29.97 "Hg
* Reported Jul 10 2:20 AM — Jul 25 2:20 AM, Peine, Weather by CustomWeather, © 2014

Note: Actual official high and low records may vary slightly from our data, if they occured in-between our weather recording intervals... More about our weather records

Advertising

Peine weather history for previous 24 hours

 ConditionsComfort  
Time TempWeatherWind HumidityBarometerVisibility
2:20 AM
Jul 25
61 °FLight rain. Partly cloudy.3 mph94%30.04 "HgN/A
1:20 AM61 °FLight rain. Passing clouds.5 mph94%30.04 "HgN/A
12:20 AM61 °FLight rain. Mostly cloudy.5 mph94%30.04 "HgN/A
11:20 PM
Jul 24
61 °FLight rain. Passing clouds.2 mph94%30.04 "HgN/A
10:20 PM61 °FPartly sunny.3 mph94%30.04 "HgN/A
9:20 PM61 °FBroken clouds.5 mph94%30.04 "HgN/A
8:20 PM63 °FLight rain. Partly sunny.7 mph88%30.07 "HgN/A
7:20 PM61 °FLight rain. Broken clouds.5 mph94%30.04 "HgN/A
6:20 PM61 °FThunderstorms. Partly sunny.16 mph83%30.04 "Hg5 mi
6:04 PM70 °FThunderstorms. Partly sunny.21 mph60%30.04 "Hg2 mi
5:59 PM75 °FThunderstorms. Broken clouds.12 mph57%30.04 "HgN/A
5:20 PM77 °FPartly sunny.13 mph54%30.01 "HgN/A
4:20 PM77 °FPartly sunny.8 mph51%30.04 "HgN/A
3:20 PM73 °FBroken clouds.8 mph53%30.04 "HgN/A
2:20 PM68 °FSprinkles. Broken clouds.9 mph64%30.07 "HgN/A
1:20 PM72 °FPartly sunny.13 mph57%30.07 "HgN/A
12:20 PM70 °FPartly sunny.9 mph60%30.07 "HgN/A
11:20 AM70 °FPartly sunny.9 mph60%30.07 "HgN/A
10:20 AM70 °FBroken clouds.12 mph60%30.07 "HgN/A
9:20 AM70 °FScattered clouds.9 mph60%30.04 "HgN/A
8:20 AM66 °FScattered clouds.8 mph68%30.07 "HgN/A
7:20 AM63 °FScattered clouds.6 mph77%30.04 "HgN/A
6:20 AM61 °FPassing clouds.5 mph77%30.04 "HgN/A
5:20 AM61 °FPassing clouds.7 mph77%30.04 "HgN/A
4:20 AM63 °FPassing clouds.8 mph73%30.04 "HgN/A
3:20 AM64 °FMild.7 mph68%30.04 "HgN/A
Weather by CustomWeather, © 2014

See weather overviewHow to use our weather pages